TimeMST,TemperatureF,Dew PointF,Humidity,Sea Level PressureIn,VisibilityMPH,Wind Direction,Wind SpeedMPH,Gust SpeedMPH,PrecipitationIn,Events,Conditions,WindDirDegrees,DateUTC
12:54 AM,3.9,-11.9,48,30.13,10.0,SW,15.0,-,N/A,,Clear,220,2013-12-09 07:54:00
1:54 AM,3.9,-11.9,48,30.10,10.0,SW,11.5,-,N/A,,Partly Cloudy,220,2013-12-09 08:54:00
2:54 AM,6.1,-11.9,44,30.09,10.0,WSW,13.8,-,N/A,,Partly Cloudy,250,2013-12-09 09:54:00
3:54 AM,9.0,-9.0,44,30.04,10.0,WSW,19.6,-,N/A,,Clear,250,2013-12-09 10:54:00
4:54 AM,12.9,-7.1,41,30.00,10.0,WSW,16.1,-,N/A,,Overcast,250,2013-12-09 11:54:00
5:54 AM,16.0,-0.9,47,29.99,10.0,WSW,18.4,-,N/A,,Overcast,250,2013-12-09 12:54:00
6:54 AM,18.0,1.0,48,29.99,10.0,WSW,17.3,-,N/A,,Overcast,240,2013-12-09 13:54:00
7:54 AM,21.0,3.0,46,29.98,10.0,WSW,15.0,20.7,N/A,,Overcast,250,2013-12-09 14:54:00
8:54 AM,21.0,5.0,50,29.98,10.0,WSW,13.8,-,N/A,,Overcast,240,2013-12-09 15:54:00
9:54 AM,23.0,9.0,55,29.96,10.0,WSW,23.0,-,N/A,,Overcast,250,2013-12-09 16:54:00
10:54 AM,26.1,12.0,55,29.97,10.0,West,21.9,31.1,N/A,,Overcast,260,2013-12-09 17:54:00
11:54 AM,26.1,14.0,60,30.03,10.0,WNW,19.6,27.6,N/A,,Overcast,300,2013-12-09 18:54:00
12:54 PM,28.0,14.0,56,30.01,10.0,WNW,21.9,29.9,N/A,,Overcast,290,2013-12-09 19:54:00
1:54 PM,27.0,12.9,56,30.03,6.0,WNW,26.5,38.0,N/A,,Haze,290,2013-12-09 20:54:00
2:54 PM,27.0,12.9,56,30.04,10.0,WNW,23.0,34.5,N/A,,Overcast,300,2013-12-09 21:54:00
3:54 PM,26.1,12.9,58,30.08,9.0,WNW,23.0,33.4,N/A,,Overcast,290,2013-12-09 22:54:00
4:54 PM,25.0,12.9,60,30.09,10.0,WNW,18.4,27.6,N/A,,Overcast,300,2013-12-09 23:54:00
5:54 PM,24.1,12.0,60,30.10,10.0,West,11.5,-,N/A,,Overcast,270,2013-12-10 00:54:00
6:54 PM,23.0,10.0,58,30.09,10.0,WSW,10.4,-,N/A,,Overcast,250,2013-12-10 01:54:00
7:54 PM,21.0,9.0,60,30.09,10.0,WSW,9.2,-,N/A,,Mostly Cloudy,250,2013-12-10 02:54:00
8:54 PM,17.1,7.0,65,30.08,10.0,SW,12.7,-,N/A,,Clear,230,2013-12-10 03:54:00
9:54 PM,15.1,5.0,64,30.05,10.0,WSW,6.9,-,N/A,,Clear,250,2013-12-10 04:54:00
10:54 PM,18.0,7.0,62,30.01,10.0,SW,12.7,-,N/A,,Clear,230,2013-12-10 05:54:00
11:54 PM,19.0,9.0,65,29.99,10.0,SSW,12.7,-,N/A,,Clear,210,2013-12-10 06:54:00